contact:dominique.lefevre@mio.osupytheas.fr, maurice.libes@osupytheas.fr, didier.mallarino@osupytheas.fr
Project:EMSO http://www.emso-fr.org/EMSO-France
Depth: 2436.0 m
Title:EMSO Ligure Ouest : Data MII capteur MICROCAT
DateTime_Computer,Latitude,Longitude,Temperature,Conductivity,Pressure,DateTime_Instrument
DateTime_Computer,Latitude,Longitude,degC,S m-1,dbar,DateTime_Instrument
2023-09-02T00:00:42Z,42.805,6.029,13.3030,4.60097,2470.777,2023-9-02T02:03:03Z
2023-09-02T00:03:45Z,42.805,6.029,13.3028,4.60098,2470.787,2023-9-02T02:06:06Z
2023-09-02T00:06:48Z,42.805,6.029,13.3031,4.60098,2470.74,2023-9-02T02:09:09Z
2023-09-02T00:09:51Z,42.805,6.029,13.3031,4.60097,2470.824,2023-9-02T02:12:12Z
2023-09-02T00:12:54Z,42.805,6.029,13.3030,4.60097,2470.763,2023-9-02T02:15:15Z
2023-09-02T00:15:57Z,42.805,6.029,13.3028,4.60097,2470.763,2023-9-02T02:18:18Z
2023-09-02T00:19:00Z,42.805,6.029,13.3028,4.60097,2470.8,2023-9-02T02:21:21Z
2023-09-02T00:22:04Z,42.805,6.029,13.3028,4.60097,2470.726,2023-9-02T02:24:24Z
2023-09-02T00:25:07Z,42.805,6.029,13.3032,4.60099,2470.777,2023-9-02T02:27:27Z
2023-09-02T00:28:10Z,42.805,6.029,13.3034,4.60096,2470.763,2023-9-02T02:30:31Z
2023-09-02T00:31:13Z,42.805,6.029,13.3030,4.60097,2470.777,2023-9-02T02:33:34Z
2023-09-02T00:34:16Z,42.805,6.029,13.3031,4.60096,2470.717,2023-9-02T02:36:37Z
2023-09-02T00:37:19Z,42.805,6.029,13.3030,4.60098,2470.777,2023-9-02T02:39:40Z
2023-09-02T00:40:22Z,42.805,6.029,13.3029,4.60098,2470.754,2023-9-02T02:42:43Z
2023-09-02T00:43:25Z,42.805,6.029,13.3032,4.60097,2470.74,2023-9-02T02:45:46Z
2023-09-02T00:46:28Z,42.805,6.029,13.3030,4.60099,2470.717,2023-9-02T02:48:49Z
2023-09-02T00:49:31Z,42.805,6.029,13.3033,4.60096,2470.717,2023-9-02T02:51:52Z
2023-09-02T00:52:34Z,42.805,6.029,13.3027,4.60097,2470.717,2023-9-02T02:54:55Z
2023-09-02T00:55:37Z,42.805,6.029,13.3031,4.60096,2470.73,2023-9-02T02:57:58Z
2023-09-02T00:58:40Z,42.805,6.029,13.3032,4.60097,2470.74,2023-9-02T03:01:01Z
2023-09-02T01:01:44Z,42.805,6.029,13.3034,4.60097,2470.74,2023-9-02T03:04:04Z
2023-09-02T01:04:47Z,42.805,6.029,13.3026,4.60097,2470.74,2023-9-02T03:07:07Z
2023-09-02T01:07:50Z,42.805,6.029,13.3028,4.60097,2470.693,2023-9-02T03:10:11Z
2023-09-02T01:10:53Z,42.805,6.029,13.3032,4.60098,2470.693,2023-9-02T03:13:14Z
2023-09-02T01:13:56Z,42.805,6.029,13.3029,4.60097,2470.707,2023-9-02T03:16:17Z
2023-09-02T01:16:59Z,42.805,6.029,13.3031,4.60097,2470.717,2023-9-02T03:19:20Z
2023-09-02T01:20:02Z,42.805,6.029,13.3028,4.60097,2470.73,2023-9-02T03:22:23Z
2023-09-02T01:23:05Z,42.805,6.029,13.3030,4.60096,2470.74,2023-9-02T03:25:26Z
2023-09-02T01:26:08Z,42.805,6.029,13.3029,4.60097,2470.717,2023-9-02T03:28:29Z
2023-09-02T01:29:11Z,42.805,6.029,13.3031,4.60097,2470.74,2023-9-02T03:31:32Z
2023-09-02T01:32:14Z,42.805,6.029,13.3030,4.60098,2470.684,2023-9-02T03:34:35Z
2023-09-02T01:35:17Z,42.805,6.029,13.3031,4.60097,2470.67,2023-9-02T03:37:38Z
2023-09-02T01:38:20Z,42.805,6.029,13.3028,4.60097,2470.707,2023-9-02T03:40:41Z
2023-09-02T01:41:24Z,42.805,6.029,13.3033,4.60097,2470.646,2023-9-02T03:43:44Z
2023-09-02T01:44:27Z,42.805,6.029,13.3031,4.60097,2470.646,2023-9-02T03:46:47Z
2023-09-02T01:47:30Z,42.805,6.029,13.3025,4.60098,2470.67,2023-9-02T03:49:51Z
2023-09-02T01:50:33Z,42.805,6.029,13.3031,4.60096,2470.693,2023-9-02T03:52:54Z
2023-09-02T01:53:36Z,42.805,6.029,13.3029,4.60096,2470.646,2023-9-02T03:55:57Z
2023-09-02T01:56:39Z,42.805,6.029,13.3029,4.60095,2470.693,2023-9-02T03:59:00Z
2023-09-02T01:59:42Z,42.805,6.029,13.3031,4.60097,2470.707,2023-9-02T04:02:03Z
2023-09-02T02:02:45Z,42.805,6.029,13.3033,4.60096,2470.67,2023-9-02T04:05:06Z
2023-09-02T02:05:48Z,42.805,6.029,13.3032,4.60095,2470.624,2023-9-02T04:08:09Z
2023-09-02T02:08:51Z,42.805,6.029,13.3033,4.60097,2470.646,2023-9-02T04:11:12Z
2023-09-02T02:11:54Z,42.805,6.029,13.3029,4.60098,2470.67,2023-9-02T04:14:15Z
2023-09-02T02:14:57Z,42.805,6.029,13.3026,4.60095,2470.624,2023-9-02T04:17:18Z
2023-09-02T02:18:00Z,42.805,6.029,13.3031,4.60095,2470.67,2023-9-02T04:20:21Z
2023-09-02T02:21:04Z,42.805,6.029,13.3030,4.60096,2470.67,2023-9-02T04:23:24Z
2023-09-02T02:24:07Z,42.805,6.029,13.3030,4.60097,2470.646,2023-9-02T04:26:27Z
2023-09-02T02:27:10Z,42.805,6.029,13.3029,4.60097,2470.624,2023-9-02T04:29:30Z
2023-09-02T02:30:13Z,42.805,6.029,13.3031,4.60097,2470.646,2023-9-02T04:32:34Z
2023-09-02T02:33:16Z,42.805,6.029,13.3028,4.60096,2470.646,2023-9-02T04:35:37Z
2023-09-02T02:36:19Z,42.805,6.029,13.3030,4.60095,2470.624,2023-9-02T04:38:40Z
2023-09-02T02:39:22Z,42.805,6.029,13.3029,4.60097,2470.646,2023-9-02T04:41:43Z
2023-09-02T02:42:25Z,42.805,6.029,13.3029,4.60098,2470.661,2023-9-02T04:44:46Z
2023-09-02T02:45:28Z,42.805,6.029,13.3027,4.60098,2470.646,2023-9-02T04:47:49Z
2023-09-02T02:48:31Z,42.805,6.029,13.3034,4.60097,2470.661,2023-9-02T04:50:52Z
2023-09-02T02:51:34Z,42.805,6.029,13.3029,4.60099,2470.646,2023-9-02T04:53:55Z
2023-09-02T02:54:37Z,42.805,6.029,13.3033,4.60097,2470.67,2023-9-02T04:56:58Z
2023-09-02T02:57:40Z,42.805,6.029,13.3031,4.60097,2470.661,2023-9-02T05:00:01Z
2023-09-02T03:00:43Z,42.805,6.029,13.3029,4.60096,2470.646,2023-9-02T05:03:04Z
2023-09-02T03:03:47Z,42.805,6.029,13.3031,4.60097,2470.67,2023-9-02T05:06:07Z
2023-09-02T03:06:50Z,42.805,6.029,13.3031,4.60097,2470.646,2023-9-02T05:09:10Z
2023-09-02T03:09:53Z,42.805,6.029,13.3033,4.60096,2470.646,2023-9-02T05:12:14Z
2023-09-02T03:12:56Z,42.805,6.029,13.3033,4.60097,2470.646,2023-9-02T05:15:17Z
2023-09-02T03:15:59Z,42.805,6.029,13.3029,4.60095,2470.624,2023-9-02T05:18:20Z
2023-09-02T03:19:02Z,42.805,6.029,13.3030,4.60097,2470.637,2023-9-02T05:21:23Z
2023-09-02T03:22:05Z,42.805,6.029,13.3028,4.60094,2470.646,2023-9-02T05:24:26Z
2023-09-02T03:25:08Z,42.805,6.029,13.3029,4.60095,2470.624,2023-9-02T05:27:29Z
2023-09-02T03:28:11Z,42.805,6.029,13.3029,4.60096,2470.624,2023-9-02T05:30:32Z
2023-09-02T03:31:14Z,42.805,6.029,13.3030,4.60097,2470.661,2023-9-02T05:33:35Z
2023-09-02T03:34:17Z,42.805,6.029,13.3031,4.60097,2470.646,2023-9-02T05:36:38Z
2023-09-02T03:37:20Z,42.805,6.029,13.3029,4.60097,2470.6,2023-9-02T05:39:41Z
2023-09-02T03:40:23Z,42.805,6.029,13.3028,4.60097,2470.646,2023-9-02T05:42:44Z
2023-09-02T03:43:26Z,42.805,6.029,13.3028,4.60097,2470.646,2023-9-02T05:45:47Z
2023-09-02T03:46:30Z,42.805,6.029,13.3029,4.60096,2470.67,2023-9-02T05:48:50Z
2023-09-02T03:49:33Z,42.805,6.029,13.3026,4.60094,2470.646,2023-9-02T05:51:54Z
2023-09-02T03:52:36Z,42.805,6.029,13.3030,4.60096,2470.624,2023-9-02T05:54:57Z
2023-09-02T03:55:39Z,42.805,6.029,13.3031,4.60096,2470.624,2023-9-02T05:58:00Z
2023-09-02T03:58:42Z,42.805,6.029,13.3030,4.60094,2470.661,2023-9-02T06:01:03Z
2023-09-02T04:01:45Z,42.805,6.029,13.3031,4.60094,2470.646,2023-9-02T06:04:06Z
2023-09-02T04:04:48Z,42.805,6.029,13.3029,4.60095,2470.624,2023-9-02T06:07:09Z
2023-09-02T04:07:51Z,42.805,6.029,13.3029,4.60096,2470.693,2023-9-02T06:10:12Z
2023-09-02T04:10:54Z,42.805,6.029,13.3030,4.60096,2470.646,2023-9-02T06:13:15Z
2023-09-02T04:13:57Z,42.805,6.029,13.3033,4.60097,2470.646,2023-9-02T06:16:18Z
2023-09-02T04:17:00Z,42.805,6.029,13.3033,4.60097,2470.67,2023-9-02T06:19:21Z
2023-09-02T04:20:03Z,42.805,6.029,13.3029,4.60096,2470.67,2023-9-02T06:22:24Z
2023-09-02T04:23:07Z,42.805,6.029,13.3030,4.60098,2470.684,2023-9-02T06:25:27Z
2023-09-02T04:26:10Z,42.805,6.029,13.3029,4.60097,2470.646,2023-9-02T06:28:30Z
2023-09-02T04:29:13Z,42.805,6.029,13.3030,4.60098,2470.67,2023-9-02T06:31:33Z
2023-09-02T04:32:16Z,42.805,6.029,13.3033,4.60098,2470.684,2023-9-02T06:34:37Z
2023-09-02T04:35:19Z,42.805,6.029,13.3027,4.60099,2470.637,2023-9-02T06:37:40Z
2023-09-02T04:38:23Z,42.805,6.029,13.3029,4.60097,2470.646,2023-9-02T06:40:43Z
2023-09-02T04:41:26Z,42.805,6.029,13.3029,4.60097,2470.67,2023-9-02T06:43:46Z
2023-09-02T04:44:29Z,42.805,6.029,13.3029,4.60097,2470.67,2023-9-02T06:46:50Z
2023-09-02T04:47:32Z,42.805,6.029,13.3031,4.60097,2470.67,2023-9-02T06:49:53Z
2023-09-02T04:50:35Z,42.805,6.029,13.3033,4.60098,2470.67,2023-9-02T06:52:56Z
2023-09-02T04:53:38Z,42.805,6.029,13.3029,4.60097,2470.707,2023-9-02T06:55:59Z
2023-09-02T04:56:41Z,42.805,6.029,13.3034,4.60099,2470.67,2023-9-02T06:59:02Z
2023-09-02T04:59:44Z,42.805,6.029,13.3026,4.60097,2470.693,2023-9-02T07:02:05Z
2023-09-02T05:02:47Z,42.805,6.029,13.3032,4.60097,2470.67,2023-9-02T07:05:08Z
2023-09-02T05:05:50Z,42.805,6.029,13.3034,4.60097,2470.67,2023-9-02T07:08:11Z
2023-09-02T05:08:53Z,42.805,6.029,13.3031,4.60099,2470.684,2023-9-02T07:11:14Z
2023-09-02T05:11:56Z,42.805,6.029,13.3027,4.60099,2470.707,2023-9-02T07:14:17Z
2023-09-02T05:14:59Z,42.805,6.029,13.3033,4.60098,2470.717,2023-9-02T07:17:20Z
2023-09-02T05:18:03Z,42.805,6.029,13.3032,4.60099,2470.717,2023-9-02T07:20:23Z
2023-09-02T05:21:06Z,42.805,6.029,13.3031,4.60097,2470.707,2023-9-02T07:23:26Z
2023-09-02T05:24:09Z,42.805,6.029,13.3031,4.60099,2470.693,2023-9-02T07:26:30Z
2023-09-02T05:27:12Z,42.805,6.029,13.3030,4.60097,2470.717,2023-9-02T07:29:33Z
2023-09-02T05:30:15Z,42.805,6.029,13.3029,4.60096,2470.679,2023-9-02T07:32:36Z
2023-09-02T05:33:18Z,42.805,6.029,13.3029,4.60097,2470.73,2023-9-02T07:35:39Z
2023-09-02T05:36:21Z,42.805,6.029,13.3031,4.60097,2470.717,2023-9-02T07:38:42Z
2023-09-02T05:39:24Z,42.805,6.029,13.3034,4.60100,2470.74,2023-9-02T07:41:45Z
2023-09-02T05:42:27Z,42.805,6.029,13.3031,4.60098,2470.73,2023-9-02T07:44:48Z
2023-09-02T05:45:30Z,42.805,6.029,13.3031,4.60096,2470.74,2023-9-02T07:47:51Z
2023-09-02T05:48:33Z,42.805,6.029,13.3034,4.60098,2470.74,2023-9-02T07:50:54Z
2023-09-02T05:51:36Z,42.805,6.029,13.3027,4.60097,2470.754,2023-9-02T07:53:57Z
2023-09-02T05:54:39Z,42.805,6.029,13.3035,4.60098,2470.754,2023-9-02T07:57:00Z
2023-09-02T05:57:43Z,42.805,6.029,13.3029,4.60099,2470.777,2023-9-02T08:00:03Z
2023-09-02T06:00:46Z,42.805,6.029,13.3026,4.60099,2470.763,2023-9-02T08:03:06Z
2023-09-02T06:03:49Z,42.805,6.029,13.3031,4.60098,2470.74,2023-9-02T08:06:10Z
2023-09-02T06:06:52Z,42.805,6.029,13.3031,4.60097,2470.763,2023-9-02T08:09:13Z
2023-09-02T06:09:55Z,42.805,6.029,13.3029,4.60097,2470.74,2023-9-02T08:12:16Z
2023-09-02T06:12:58Z,42.805,6.029,13.3032,4.60099,2470.74,2023-9-02T08:15:19Z
2023-09-02T06:16:01Z,42.805,6.029,13.3029,4.60101,2470.763,2023-9-02T08:18:22Z
2023-09-02T06:19:04Z,42.805,6.029,13.3033,4.60099,2470.763,2023-9-02T08:21:25Z
2023-09-02T06:22:07Z,42.805,6.029,13.3030,4.60097,2470.787,2023-9-02T08:24:28Z
2023-09-02T06:25:10Z,42.805,6.029,13.3029,4.60097,2470.787,2023-9-02T08:27:31Z
2023-09-02T06:28:13Z,42.805,6.029,13.3030,4.60098,2470.824,2023-9-02T08:30:34Z
2023-09-02T06:31:16Z,42.805,6.029,13.3032,4.60097,2470.81,2023-9-02T08:33:37Z
2023-09-02T06:34:19Z,42.805,6.029,13.3027,4.60099,2470.787,2023-9-02T08:36:40Z
2023-09-02T06:37:22Z,42.805,6.029,13.3029,4.60099,2470.824,2023-9-02T08:39:43Z
2023-09-02T06:40:26Z,42.805,6.029,13.3029,4.60098,2470.81,2023-9-02T08:42:46Z
2023-09-02T06:43:29Z,42.805,6.029,13.3029,4.60098,2470.833,2023-9-02T08:45:50Z
2023-09-02T06:46:32Z,42.805,6.029,13.3031,4.60097,2470.8,2023-9-02T08:48:53Z
2023-09-02T06:49:35Z,42.805,6.029,13.3031,4.60102,2470.81,2023-9-02T08:51:56Z
2023-09-02T06:52:38Z,42.805,6.029,13.3031,4.60099,2470.81,2023-9-02T08:54:59Z
2023-09-02T06:55:41Z,42.805,6.029,13.3029,4.60101,2470.81,2023-9-02T08:58:02Z
2023-09-02T06:58:44Z,42.805,6.029,13.3034,4.60107,2470.824,2023-9-02T09:01:05Z
2023-09-02T07:01:47Z,42.805,6.029,13.3031,4.60097,2470.81,2023-9-02T09:04:08Z
2023-09-02T07:04:50Z,42.805,6.029,13.3029,4.60099,2470.824,2023-9-02T09:07:11Z
2023-09-02T07:07:53Z,42.805,6.029,13.3031,4.60097,2470.81,2023-9-02T09:10:14Z
2023-09-02T07:10:56Z,42.805,6.029,13.3033,4.60098,2470.857,2023-9-02T09:13:17Z
2023-09-02T07:13:59Z,42.805,6.029,13.3029,4.60100,2470.81,2023-9-02T09:16:20Z
2023-09-02T07:17:03Z,42.805,6.029,13.3026,4.60097,2470.787,2023-9-02T09:19:23Z
2023-09-02T07:20:06Z,42.805,6.029,13.3028,4.60097,2470.833,2023-9-02T09:22:26Z
2023-09-02T07:23:09Z,42.805,6.029,13.3033,4.60098,2470.847,2023-9-02T09:25:29Z
2023-09-02T07:26:12Z,42.805,6.029,13.3029,4.60101,2470.833,2023-9-02T09:28:33Z
2023-09-02T07:29:15Z,42.805,6.029,13.3027,4.60100,2470.833,2023-9-02T09:31:36Z
2023-09-02T07:32:18Z,42.805,6.029,13.3030,4.60103,2470.824,2023-9-02T09:34:39Z
2023-09-02T07:35:21Z,42.805,6.029,13.3029,4.60102,2470.847,2023-9-02T09:37:42Z
2023-09-02T07:38:24Z,42.805,6.029,13.3031,4.60099,2470.833,2023-9-02T09:40:45Z
2023-09-02T07:41:27Z,42.805,6.029,13.3031,4.60099,2470.847,2023-9-02T09:43:48Z
2023-09-02T07:44:30Z,42.805,6.029,13.3033,4.60099,2470.871,2023-9-02T09:46:51Z
2023-09-02T07:47:33Z,42.805,6.029,13.3034,4.60100,2470.833,2023-9-02T09:49:54Z
2023-09-02T07:50:36Z,42.805,6.029,13.3032,4.60102,2470.833,2023-9-02T09:52:57Z
2023-09-02T07:53:39Z,42.805,6.029,13.3028,4.60102,2470.833,2023-9-02T09:56:00Z
2023-09-02T07:56:42Z,42.805,6.029,13.3031,4.60101,2470.833,2023-9-02T09:59:03Z
2023-09-02T07:59:46Z,42.805,6.029,13.3034,4.60102,2470.824,2023-9-02T10:02:06Z
2023-09-02T08:02:49Z,42.805,6.029,13.3039,4.60098,2470.824,2023-9-02T10:05:10Z
2023-09-02T08:05:52Z,42.805,6.029,13.3034,4.60102,2470.833,2023-9-02T10:08:13Z
2023-09-02T08:08:55Z,42.805,6.029,13.3029,4.60109,2470.871,2023-9-02T10:11:16Z
2023-09-02T08:11:58Z,42.805,6.029,13.3033,4.60104,2470.81,2023-9-02T10:14:19Z
2023-09-02T08:15:01Z,42.805,6.029,13.3031,4.60110,2470.847,2023-9-02T10:17:22Z
2023-09-02T08:18:04Z,42.805,6.029,13.3033,4.60107,2470.833,2023-9-02T10:20:25Z
2023-09-02T08:21:07Z,42.805,6.029,13.3033,4.60109,2470.824,2023-9-02T10:23:28Z
2023-09-02T08:24:10Z,42.805,6.029,13.3031,4.60113,2470.824,2023-9-02T10:26:31Z
2023-09-02T08:27:13Z,42.805,6.029,13.3033,4.60108,2470.847,2023-9-02T10:29:34Z
2023-09-02T08:30:15Z,42.805,6.029,13.3035,4.60108,2470.833,2023-9-02T10:32:36Z
2023-09-02T08:33:18Z,42.805,6.029,13.3035,4.60105,2470.81,2023-9-02T10:35:39Z
2023-09-02T08:36:21Z,42.805,6.029,13.3031,4.60103,2470.81,2023-9-02T10:38:42Z
2023-09-02T08:39:24Z,42.805,6.029,13.3032,4.60104,2470.824,2023-9-02T10:41:45Z
2023-09-02T08:42:27Z,42.805,6.029,13.3031,4.60103,2470.81,2023-9-02T10:44:48Z
2023-09-02T08:45:30Z,42.805,6.029,13.3031,4.60102,2470.81,2023-9-02T10:47:51Z
2023-09-02T08:48:33Z,42.805,6.029,13.3029,4.60102,2470.847,2023-9-02T10:50:54Z
2023-09-02T08:51:36Z,42.805,6.029,13.3029,4.60112,2470.847,2023-9-02T10:53:57Z
2023-09-02T08:54:39Z,42.805,6.029,13.3033,4.60107,2470.833,2023-9-02T10:57:00Z
2023-09-02T08:57:42Z,42.805,6.029,13.3029,4.60111,2470.82,2023-9-02T11:00:03Z
2023-09-02T09:00:46Z,42.805,6.029,13.3036,4.60117,2470.81,2023-9-02T11:03:06Z
2023-09-02T09:03:49Z,42.805,6.029,13.3032,4.60115,2470.824,2023-9-02T11:06:10Z
2023-09-02T09:06:52Z,42.805,6.029,13.3029,4.60113,2470.824,2023-9-02T11:09:13Z
2023-09-02T09:09:55Z,42.805,6.029,13.3033,4.60125,2470.81,2023-9-02T11:12:16Z
2023-09-02T09:12:58Z,42.805,6.029,13.3033,4.60116,2470.824,2023-9-02T11:15:19Z
2023-09-02T09:16:01Z,42.805,6.029,13.3033,4.60114,2470.847,2023-9-02T11:18:22Z
2023-09-02T09:19:04Z,42.805,6.029,13.3029,4.60114,2470.81,2023-9-02T11:21:25Z
2023-09-02T09:22:07Z,42.805,6.029,13.3032,4.60116,2470.833,2023-9-02T11:24:28Z
2023-09-02T09:25:10Z,42.805,6.029,13.3032,4.60132,2470.833,2023-9-02T11:27:31Z
2023-09-02T09:28:13Z,42.805,6.029,13.3034,4.60129,2470.847,2023-9-02T11:30:34Z
2023-09-02T09:31:16Z,42.805,6.029,13.3036,4.60116,2470.787,2023-9-02T11:33:37Z
2023-09-02T09:34:19Z,42.805,6.029,13.3041,4.60127,2470.833,2023-9-02T11:36:40Z
2023-09-02T09:37:23Z,42.805,6.029,13.3041,4.60139,2470.81,2023-9-02T11:39:43Z
2023-09-02T09:40:26Z,42.805,6.029,13.3118,4.60142,2470.833,2023-9-02T11:42:47Z
2023-09-02T09:43:29Z,42.805,6.029,13.3093,4.60143,2470.81,2023-9-02T11:45:50Z
2023-09-02T09:46:32Z,42.805,6.029,13.3083,4.60147,2470.787,2023-9-02T11:48:53Z
2023-09-02T09:49:35Z,42.805,6.029,13.3084,4.60127,2470.81,2023-9-02T11:51:56Z
2023-09-02T09:52:38Z,42.805,6.029,13.3063,4.60125,2470.81,2023-9-02T11:54:59Z
2023-09-02T09:55:41Z,42.805,6.029,13.3074,4.60135,2470.81,2023-9-02T11:58:02Z
2023-09-02T09:58:44Z,42.805,6.029,13.3074,4.60130,2470.824,2023-9-02T12:01:05Z
2023-09-02T10:01:47Z,42.805,6.029,13.3044,4.60147,2470.824,2023-9-02T12:04:08Z
2023-09-02T10:04:50Z,42.805,6.029,13.3119,4.60132,2470.824,2023-9-02T12:07:11Z
2023-09-02T10:07:53Z,42.805,6.029,13.3095,4.60138,2470.81,2023-9-02T12:10:14Z
2023-09-02T10:10:56Z,42.805,6.029,13.3080,4.60126,2470.857,2023-9-02T12:13:17Z
2023-09-02T10:14:00Z,42.805,6.029,13.3066,4.60127,2470.81,2023-9-02T12:16:20Z
2023-09-02T10:17:03Z,42.805,6.029,13.3073,4.60129,2470.787,2023-9-02T12:19:23Z
2023-09-02T10:20:06Z,42.805,6.029,13.3074,4.60141,2470.773,2023-9-02T12:22:27Z
2023-09-02T10:23:09Z,42.805,6.029,13.3084,4.60131,2470.833,2023-9-02T12:25:30Z
2023-09-02T10:26:12Z,42.805,6.029,13.3039,4.60125,2470.824,2023-9-02T12:28:33Z
2023-09-02T10:29:15Z,42.805,6.029,13.3065,4.60155,2470.777,2023-9-02T12:31:36Z
2023-09-02T10:32:18Z,42.805,6.029,13.3070,4.60149,2470.81,2023-9-02T12:34:39Z
2023-09-02T10:35:21Z,42.805,6.029,13.3067,4.60140,2470.824,2023-9-02T12:37:42Z
2023-09-02T10:38:24Z,42.805,6.029,13.3067,4.60140,2470.787,2023-9-02T12:40:45Z
2023-09-02T10:41:27Z,42.805,6.029,13.3073,4.60127,2470.8,2023-9-02T12:43:48Z
2023-09-02T10:44:30Z,42.805,6.029,13.3063,4.60127,2470.787,2023-9-02T12:46:51Z
2023-09-02T10:47:33Z,42.805,6.029,13.3087,4.60137,2470.777,2023-9-02T12:49:54Z
2023-09-02T10:50:37Z,42.805,6.029,13.3071,4.60131,2470.777,2023-9-02T12:52:57Z
2023-09-02T10:53:40Z,42.805,6.029,13.3064,4.60142,2470.8,2023-9-02T12:56:01Z
2023-09-02T10:56:43Z,42.805,6.029,13.3063,4.60132,2470.8,2023-9-02T12:59:04Z
2023-09-02T10:59:46Z,42.805,6.029,13.3098,4.60127,2470.777,2023-9-02T13:02:07Z
2023-09-02T11:02:49Z,42.805,6.029,13.3067,4.60114,2470.8,2023-9-02T13:05:10Z
2023-09-02T11:05:52Z,42.805,6.029,13.3063,4.60131,2470.777,2023-9-02T13:08:13Z
2023-09-02T11:08:55Z,42.805,6.029,13.3070,4.60126,2470.787,2023-9-02T13:11:16Z
2023-09-02T11:11:58Z,42.805,6.029,13.3073,4.60132,2470.8,2023-9-02T13:14:19Z
2023-09-02T11:15:01Z,42.805,6.029,13.3075,4.60137,2470.763,2023-9-02T13:17:22Z
2023-09-02T11:18:04Z,42.805,6.029,13.3064,4.60130,2470.73,2023-9-02T13:20:25Z
2023-09-02T11:21:07Z,42.805,6.029,13.3066,4.60125,2470.763,2023-9-02T13:23:28Z
2023-09-02T11:24:10Z,42.805,6.029,13.3067,4.60135,2470.74,2023-9-02T13:26:31Z
2023-09-02T11:27:14Z,42.805,6.029,13.3064,4.60124,2470.763,2023-9-02T13:29:34Z
2023-09-02T11:30:17Z,42.805,6.029,13.3063,4.60126,2470.8,2023-9-02T13:32:38Z
2023-09-02T11:33:20Z,42.805,6.029,13.3062,4.60123,2470.754,2023-9-02T13:35:41Z
2023-09-02T11:36:23Z,42.805,6.029,13.3067,4.60122,2470.763,2023-9-02T13:38:44Z
2023-09-02T11:39:26Z,42.805,6.029,13.3059,4.60126,2470.74,2023-9-02T13:41:47Z
2023-09-02T11:42:29Z,42.805,6.029,13.3082,4.60127,2470.717,2023-9-02T13:44:50Z
2023-09-02T11:45:32Z,42.805,6.029,13.3059,4.60132,2470.74,2023-9-02T13:47:53Z
2023-09-02T11:48:35Z,42.805,6.029,13.3067,4.60128,2470.73,2023-9-02T13:50:56Z
2023-09-02T11:51:38Z,42.805,6.029,13.3069,4.60128,2470.754,2023-9-02T13:53:59Z
2023-09-02T11:54:41Z,42.805,6.029,13.3075,4.60135,2470.73,2023-9-02T13:57:02Z
2023-09-02T11:57:44Z,42.805,6.029,13.3090,4.60131,2470.73,2023-9-02T14:00:05Z
2023-09-02T12:00:47Z,42.805,6.029,13.3080,4.60141,2470.74,2023-9-02T14:03:08Z
2023-09-02T12:03:51Z,42.805,6.029,13.3080,4.60147,2470.717,2023-9-02T14:06:11Z
2023-09-02T12:06:54Z,42.805,6.029,13.3071,4.60140,2470.74,2023-9-02T14:09:15Z
2023-09-02T12:09:57Z,42.805,6.029,13.3067,4.60127,2470.73,2023-9-02T14:12:18Z
2023-09-02T12:13:00Z,42.805,6.029,13.3069,4.60133,2470.717,2023-9-02T14:15:21Z
2023-09-02T12:16:03Z,42.805,6.029,13.3058,4.60152,2470.693,2023-9-02T14:18:24Z
2023-09-02T12:19:06Z,42.805,6.029,13.3068,4.60126,2470.707,2023-9-02T14:21:27Z
2023-09-02T12:22:09Z,42.805,6.029,13.3133,4.60145,2470.74,2023-9-02T14:24:30Z
2023-09-02T12:25:12Z,42.805,6.029,13.3076,4.60137,2470.693,2023-9-02T14:27:33Z
2023-09-02T12:28:15Z,42.805,6.029,13.3074,4.60137,2470.73,2023-9-02T14:30:36Z
2023-09-02T12:31:18Z,42.805,6.029,13.3069,4.60147,2470.754,2023-9-02T14:33:39Z
2023-09-02T12:34:21Z,42.805,6.029,13.3071,4.60135,2470.74,2023-9-02T14:36:42Z
2023-09-02T12:37:24Z,42.805,6.029,13.3066,4.60145,2470.717,2023-9-02T14:39:45Z
2023-09-02T12:40:28Z,42.805,6.029,13.3097,4.60131,2470.693,2023-9-02T14:42:48Z
2023-09-02T12:43:31Z,42.805,6.029,13.3078,4.60129,2470.707,2023-9-02T14:45:52Z
2023-09-02T12:46:34Z,42.805,6.029,13.3067,4.60137,2470.717,2023-9-02T14:48:55Z
2023-09-02T12:49:37Z,42.805,6.029,13.3078,4.60127,2470.73,2023-9-02T14:51:58Z
2023-09-02T12:52:40Z,42.805,6.029,13.3059,4.60132,2470.693,2023-9-02T14:55:01Z
2023-09-02T12:55:43Z,42.805,6.029,13.3082,4.60137,2470.67,2023-9-02T14:58:04Z
2023-09-02T12:58:46Z,42.805,6.029,13.3080,4.60141,2470.73,2023-9-02T15:01:07Z
2023-09-02T13:01:49Z,42.805,6.029,13.3068,4.60137,2470.684,2023-9-02T15:04:10Z
2023-09-02T13:04:52Z,42.805,6.029,13.3045,4.60132,2470.74,2023-9-02T15:07:13Z
2023-09-02T13:07:55Z,42.805,6.029,13.3086,4.60134,2470.67,2023-9-02T15:10:16Z
2023-09-02T13:10:58Z,42.805,6.029,13.3036,4.60140,2470.646,2023-9-02T15:13:19Z
2023-09-02T13:14:01Z,42.805,6.029,13.3033,4.60127,2470.693,2023-9-02T15:16:22Z
2023-09-02T13:17:05Z,42.805,6.029,13.3033,4.60128,2470.707,2023-9-02T15:19:25Z
2023-09-02T13:20:08Z,42.805,6.029,13.3034,4.60143,2470.661,2023-9-02T15:22:29Z
2023-09-02T13:23:11Z,42.805,6.029,13.3043,4.60126,2470.67,2023-9-02T15:25:32Z
2023-09-02T13:26:14Z,42.805,6.029,13.3031,4.60126,2470.693,2023-9-02T15:28:35Z
2023-09-02T13:29:17Z,42.805,6.029,13.3032,4.60115,2470.693,2023-9-02T15:31:38Z
2023-09-02T13:32:20Z,42.805,6.029,13.3031,4.60121,2470.67,2023-9-02T15:34:41Z
2023-09-02T13:35:23Z,42.805,6.029,13.3031,4.60116,2470.684,2023-9-02T15:37:44Z
2023-09-02T13:38:26Z,42.805,6.029,13.3029,4.60107,2470.67,2023-9-02T15:40:47Z
2023-09-02T13:41:29Z,42.805,6.029,13.3035,4.60119,2470.661,2023-9-02T15:43:50Z
2023-09-02T13:44:32Z,42.805,6.029,13.3029,4.60114,2470.646,2023-9-02T15:46:53Z
2023-09-02T13:47:35Z,42.805,6.029,13.3028,4.60114,2470.646,2023-9-02T15:49:56Z
2023-09-02T13:50:38Z,42.805,6.029,13.3027,4.60110,2470.646,2023-9-02T15:52:59Z
2023-09-02T13:53:42Z,42.805,6.029,13.3030,4.60109,2470.633,2023-9-02T15:56:02Z
2023-09-02T13:56:45Z,42.805,6.029,13.3029,4.60104,2470.661,2023-9-02T15:59:06Z
2023-09-02T13:59:48Z,42.805,6.029,13.3033,4.60110,2470.67,2023-9-02T16:02:09Z
2023-09-02T14:02:51Z,42.805,6.029,13.3032,4.60112,2470.661,2023-9-02T16:05:12Z
2023-09-02T14:05:54Z,42.805,6.029,13.3029,4.60107,2470.67,2023-9-02T16:08:15Z
2023-09-02T14:08:57Z,42.805,6.029,13.3030,4.60110,2470.67,2023-9-02T16:11:18Z
2023-09-02T14:12:00Z,42.805,6.029,13.3027,4.60104,2470.707,2023-9-02T16:14:21Z
2023-09-02T14:15:03Z,42.805,6.029,13.3029,4.60113,2470.646,2023-9-02T16:17:24Z
2023-09-02T14:18:06Z,42.805,6.029,13.3030,4.60105,2470.646,2023-9-02T16:20:27Z
2023-09-02T14:21:09Z,42.805,6.029,13.3033,4.60102,2470.684,2023-9-02T16:23:30Z
2023-09-02T14:24:12Z,42.805,6.029,13.3029,4.60104,2470.646,2023-9-02T16:26:33Z
2023-09-02T14:27:15Z,42.805,6.029,13.3028,4.60104,2470.684,2023-9-02T16:29:36Z
2023-09-02T14:30:19Z,42.805,6.029,13.3032,4.60104,2470.637,2023-9-02T16:32:40Z
2023-09-02T14:33:22Z,42.805,6.029,13.3031,4.60104,2470.646,2023-9-02T16:35:43Z
2023-09-02T14:36:25Z,42.805,6.029,13.3034,4.60105,2470.67,2023-9-02T16:38:46Z
2023-09-02T14:39:28Z,42.805,6.029,13.3030,4.60104,2470.637,2023-9-02T16:41:49Z
2023-09-02T14:42:31Z,42.805,6.029,13.3031,4.60104,2470.661,2023-9-02T16:44:52Z
2023-09-02T14:45:34Z,42.805,6.029,13.3029,4.60107,2470.637,2023-9-02T16:47:55Z
2023-09-02T14:48:37Z,42.805,6.029,13.3031,4.60099,2470.624,2023-9-02T16:50:58Z
2023-09-02T14:51:41Z,42.805,6.029,13.3031,4.60101,2470.624,2023-9-02T16:54:01Z
2023-09-02T14:54:44Z,42.805,6.029,13.3034,4.60103,2470.624,2023-9-02T16:57:04Z
2023-09-02T14:57:47Z,42.805,6.029,13.3029,4.60101,2470.624,2023-9-02T17:00:08Z
2023-09-02T15:00:50Z,42.805,6.029,13.3033,4.60103,2470.624,2023-9-02T17:03:11Z
2023-09-02T15:03:53Z,42.805,6.029,13.3032,4.60103,2470.661,2023-9-02T17:06:14Z
2023-09-02T15:06:56Z,42.805,6.029,13.3031,4.60098,2470.637,2023-9-02T17:09:17Z
2023-09-02T15:09:59Z,42.805,6.029,13.3031,4.60099,2470.637,2023-9-02T17:12:20Z
2023-09-02T15:13:02Z,42.805,6.029,13.3029,4.60099,2470.6,2023-9-02T17:15:23Z